Date,TemperatureHighF,TemperatureAvgF,TemperatureLowF,DewpointHighF,DewpointAvgF,DewpointLowF,HumidityHigh,HumidityAvg,HumidityLow,PressureMaxIn,PressureMinIn,WindSpeedMaxMPH,WindSpeedAvgMPH,GustSpeedMaxMPH,PrecipitationSumIn
2012-12-1,63.7,53.9,39.6,54.3,47.5,35.5,89,79,70,30.01,29.81,26,8,26,0.00
2012-12-2,64.7,58.5,51.5,57.9,53.4,48.7,92,83,76,29.93,29.80,19,4,23,0.00
2012-12-3,71.9,63.3,54.3,61.7,57.1,50.4,90,81,65,29.90,29.70,29,10,30,0.09
2012-12-4,62.0,48.9,37.1,50.5,40.8,31.2,89,74,54,30.20,29.83,12,1,19,0.61
2012-12-5,46.3,38.5,31.4,36.2,31.6,26.8,86,76,63,30.34,30.10,14,1,14,0.00
2012-12-6,50.6,42.9,34.2,43.2,37.4,29.8,95,81,73,30.10,29.83,14,3,14,0.56
2012-12-7,46.1,44.5,42.5,45.3,42.9,40.6,97,94,90,29.87,29.74,14,2,14,0.64
2012-12-8,45.1,40.5,38.6,41.8,37.3,35.7,92,88,83,29.95,29.75,10,1,10,0.02
2012-12-9,45.6,41.1,31.9,44.8,38.4,28.2,97,90,86,29.94,29.69,18,4,21,0.11
2012-12-10,36.0,27.0,21.5,28.3,22.5,18.4,90,83,73,29.97,29.76,19,8,19,0.00
2012-12-11,37.2,28.5,20.0,26.9,21.9,16.4,91,77,62,30.14,29.96,22,4,22,0.00
2012-12-12,45.8,35.5,24.7,31.2,25.7,19.5,84,68,51,30.25,30.12,18,6,18,0.00
2012-12-13,48.5,39.6,31.0,34.5,28.9,24.9,79,66,51,30.22,30.05,22,9,25,0.00
2012-12-14,54.4,43.1,30.9,37.7,31.5,22.4,84,64,47,30.13,29.89,22,6,22,0.02
2012-12-15,53.3,48.6,42.4,48.9,44.7,36.4,97,87,73,29.91,29.47,29,8,29,0.84
2012-12-16,50.3,42.7,38.1,44.9,38.4,34.1,89,85,81,29.69,29.56,15,3,15,0.00
2012-12-17,38.4,34.9,32.1,35.4,32.1,29.5,92,89,86,29.70,29.59,11,1,11,0.25
2012-12-18,52.2,38.1,29.4,43.4,33.3,26.7,91,83,69,29.84,29.50,27,6,27,0.16
2012-12-19,43.9,36.6,31.7,40.9,33.1,28.3,92,87,82,29.96,29.45,15,2,17,0.18
2012-12-20,52.3,39.1,22.5,49.5,36.1,18.7,96,89,82,29.76,29.06,40,16,40,0.32
2012-12-21,28.2,22.1,16.7,20.3,15.1,11.1,92,74,62,30.21,29.74,28,11,30,0.00
2012-12-22,37.9,27.2,11.5,26.0,19.3,6.9,91,73,50,30.23,29.85,16,4,16,0.00
2012-12-23,34.4,28.5,21.2,28.6,24.3,18.0,93,84,73,29.94,29.83,12,1,13,0.00
2012-12-24,30.8,25.6,20.8,28.2,22.3,15.6,94,87,80,30.08,29.76,19,5,19,0.00
2012-12-25,28.1,25.4,21.5,23.7,20.6,17.1,92,82,77,30.25,30.04,16,4,16,0.00
2012-12-26,30.9,28.0,26.2,25.1,23.3,21.4,88,82,78,30.09,29.93,25,8,25,0.00
2012-12-27,30.4,27.3,22.0,23.1,21.5,17.8,92,79,70,30.15,30.03,12,1,12,0.00
2012-12-28,32.6,30.4,27.9,29.1,26.1,22.2,89,84,78,30.06,29.83,10,2,10,0.00
2012-12-29,30.5,24.3,16.4,27.0,19.7,11.9,92,82,74,30.25,29.83,23,6,23,0.00
2012-12-30,40.5,29.2,17.9,28.8,22.4,12.1,85,76,61,30.33,30.07,20,6,21,0.00
2012-12-31,35.6,29.8,20.3,29.7,25.4,16.0,90,84,68,30.11,30.00,17,4,21,0.07